Wind_Speed
10 11 12 13 13 13 13 14 15 15 16 16 16 16 17 17 17 17 17 16 16 16 17 17 18 18 19 20 21 22 23 23 23 24 25 25 25 25
11 12 13 13 14 14 14 15 15 16 16 16 16 16 16 17 18 17 17 17 17 17 17 18 19 19 20 21 22 23 23 23 23 23 24 25 25 26
12 13 13 14 14 15 15 15 15 16 16 16 16 17 17 18 18 17 17 18 18 18 19 19 19 20 21 22 23 23 23 24 24 24 25 25 26 26
13 13 14 15 15 15 16 16 17 17 16 16 17 18 18 19 18 18 18 19 19 19 20 20 21 22 22 23 23 24 24 25 26 26 26 27 27 28
14 14 15 16 16 16 17 17 17 17 18 18 18 19 19 19 19 19 19 19 20 21 22 22 22 23 23 24 24 25 25 26 26 27 27 27 28 27
15 15 16 16 17 17 17 17 18 18 18 19 19 19 19 19 20 20 20 21 21 21 22 22 23 24 24 25 25 26 26 26 26 27 27 27 27 28
16 17 17 18 18 18 18 18 19 19 19 19 19 19 20 20 20 21 21 22 23 23 23 23 23 24 24 25 25 26 26 26 26 27 27 27 27 27
18 18 19 19 19 19 19 20 20 21 21 21 20 20 21 21 22 22 23 23 23 23 24 23 24 24 24 24 25 26 26 26 26 26 26 26 26 27
20 20 20 21 21 20 21 21 22 22 22 21 21 21 22 23 24 24 24 24 25 24 24 24 24 24 25 25 26 26 26 26 26 26 26 26 26 26
21 21 21 21 21 21 22 22 22 22 22 22 23 24 24 25 25 25 25 25 25 25 25 25 25 26 26 26 26 26 26 26 26 25 25 25 25 25
22 22 22 22 22 21 22 22 21 21 22 22 24 25 25 25 26 26 27 26 26 26 26 26 26 26 26 26 26 26 26 25 25 24 24 24 25 25
22 22 22 22 22 22 22 22 23 23 23 23 24 25 26 26 26 27 27 27 27 27 26 26 26 26 26 25 25 26 26 26 25 25 25 25 26 26
24 23 23 23 23 23 24 24 24 24 24 24 25 25 26 26 26 26 26 26 26 27 27 27 27 27 27 26 26 26 25 25 25 26 26 27 27 27
25 25 25 25 25 24 25 25 25 25 25 25 26 26 26 26 26 26 27 27 27 27 27 27 28 28 28 27 27 26 26 26 27 27 27 27 27 27
27 27 27 27 26 26 26 27 27 27 27 27 27 27 27 27 27 26 27 27 27 27 28 28 28 28 28 27 27 26 26 26 27 28 28 28 27 27
29 28 28 28 28 28 28 28 28 28 28 28 28 28 28 28 27 27 27 27 28 28 28 28 28 28 28 27 27 27 27 28 28 28 28 28 27 27
30 29 29 28 29 29 29 29 29 29 29 30 30 30 30 29 28 28 28 28 28 28 27 28 28 28 28 27 28 28 28 28 28 28 28 27 27 27
31 30 30 30 30 30 30 30 30 30 31 31 30 30 30 30 29 29 29 29 29 28 28 28 28 28 28 28 28 28 28 28 28 27 28 28 27 27
32 31 31 31 32 32 31 31 32 32 31 31 31 31 30 29 29 29 29 29 29 29 29 29 29 29 29 29 28 29 29 28 28 27 27 27 27 27
32 32 32 31 31 32 32 32 33 33 32 32 31 31 31 30 29 29 29 29 29 29 29 29 29 29 30 29 28 29 29 28 28 27 27 27 27 27
32 32 32 32 32 32 32 32 33 33 33 33 31 31 30 30 30 30 30 30 29 29 29 29 29 30 30 30 29 29 28 28 28 27 28 28 27 26
32 32 31 31 32 32 32 32 32 32 32 31 30 30 30 29 29 30 30 30 29 30 30 30 30 30 29 29 29 28 28 27 28 28 28 28 27 27
32 32 32 32 32 32 32 32 32 32 32 30 30 30 30 30 29 29 30 30 29 30 30 30 30 30 29 29 29 29 28 28 27 27 27 27 27 27
Wind_Direction
325 324 322 321 323 322 321 318 316 312 310 309 308 308 307 307 306 304 303 302 302 301 302 302 301 299 297 296 295 294 294 293 290 288 287 287 286 284
326 324 323 324 324 323 323 319 316 315 313 311 310 310 310 310 309 305 303 303 302 302 305 305 302 299 298 297 295 294 294 293 292 291 290 288 287 284
326 325 325 325 324 323 322 322 321 318 316 314 312 311 311 310 308 305 304 304 303 303 304 306 306 303 301 299 298 297 296 294 295 294 292 290 289 288
327 327 326 326 324 322 321 321 321 320 318 315 312 311 311 311 309 307 305 303 303 303 304 304 305 304 303 302 300 299 297 296 296 296 295 293 291 289
325 326 326 325 324 322 321 320 319 319 318 316 315 315 313 312 311 310 308 305 305 304 304 304 303 303 303 302 301 300 298 297 297 296 295 294 292 291
324 325 325 324 323 322 321 319 318 317 317 317 317 317 317 315 313 313 310 309 308 306 305 306 305 304 304 304 303 302 301 300 298 297 296 294 292 291
321 321 322 323 322 320 319 318 317 315 314 315 315 315 315 316 314 314 313 312 311 310 310 309 308 306 305 305 305 303 302 301 299 299 298 296 294 292
318 318 319 319 320 318 317 316 314 314 314 313 313 313 313 314 314 314 313 312 312 312 312 310 309 308 308 307 306 305 305 304 302 301 300 298 297 295
317 317 316 316 316 316 315 315 314 313 312 312 311 310 311 312 313 312 312 312 310 310 311 312 310 309 309 308 307 306 306 306 305 304 303 302 301 299
315 315 316 315 313 313 313 313 313 312 312 311 310 309 310 310 310 310 309 309 310 311 311 310 309 308 308 307 307 307 306 306 306 306 305 304 303 303
313 313 314 316 315 314 315 315 314 313 312 310 310 309 309 308 307 308 309 308 309 309 309 310 309 308 308 309 308 308 308 308 308 308 307 307 306 306
312 312 313 313 314 313 313 314 314 311 309 309 310 309 308 307 307 307 307 307 308 309 310 309 309 309 308 308 308 308 308 308 308 308 307 307 306 306
310 311 312 313 313 312 312 313 313 312 309 308 309 309 309 309 309 308 307 307 307 308 309 308 308 309 309 308 308 307 307 307 307 307 306 307 307 306
308 309 309 309 310 310 310 311 311 309 309 308 308 308 308 308 307 307 307 307 307 308 308 307 307 307 307 307 307 307 306 307 307 306 305 305 306 306
306 306 307 307 308 308 309 310 309 308 308 308 308 308 308 307 306 306 307 307 307 307 307 306 306 306 306 306 306 306 306 305 305 305 306 305 305 306
304 305 305 305 305 306 307 308 308 307 306 307 308 307 307 306 305 305 306 307 309 308 307 305 306 307 306 306 305 305 305 305 304 304 305 306 305 304
301 301 302 303 304 304 304 305 306 306 306 305 305 306 306 304 303 304 304 305 307 307 307 306 306 306 306 305 305 304 305 305 305 305 305 306 306 306
299 299 300 301 303 303 302 304 305 306 305 306 305 305 305 303 303 303 303 304 305 305 305 305 306 305 305 305 305 305 304 303 304 304 302 303 304 305
297 297 300 301 302 301 302 303 304 305 306 305 305 304 304 303 303 303 303 304 305 305 305 305 306 306 305 305 306 305 304 304 303 303 302 302 303 304
297 297 299 300 301 301 301 302 303 304 305 305 304 303 303 303 302 302 302 303 304 305 305 305 305 305 304 304 304 304 304 304 303 302 303 304 303 303
297 297 298 299 300 301 301 301 302 304 305 304 303 302 301 301 301 300 300 302 304 305 306 305 305 304 303 302 302 303 303 302 302 302 303 303 301 301
297 297 298 299 300 301 302 302 302 303 304 303 303 302 301 302 301 300 300 302 304 305 305 304 303 302 301 301 301 301 301 301 301 302 302 302 303 303
297 297 297 298 299 300 302 302 302 303 303 302 303 302 301 301 301 300 300 301 303 304 304 303 303 302 302 301 301 301 301 301 300 300 300 302 303 305
Height
5884 5883 5881 5879 5877 5876 5874 5873 5871 5869 5868 5866 5865 5863 5861 5860 5858 5857 5855 5853 5852 5851 5849 5847 5846 5844 5843 5842 5840 5838 5836 5835 5833 5832 5831 5829 5827 5826
5882 5881 5879 5877 5875 5873 5872 5870 5868 5867 5865 5863 5861 5859 5858 5856 5854 5853 5851 5850 5848 5846 5845 5843 5841 5839 5838 5836 5834 5832 5830 5828 5826 5825 5823 5822 5820 5819
5880 5879 5877 5875 5873 5871 5869 5867 5865 5863 5862 5860 5857 5856 5854 5852 5850 5848 5847 5845 5843 5842 5840 5838 5836 5834 5832 5831 5828 5826 5824 5822 5820 5818 5816 5815 5813 5811
5878 5876 5874 5872 5870 5868 5866 5864 5862 5860 5858 5856 5854 5852 5850 5848 5846 5843 5843 5841 5839 5837 5834 5832 5831 5829 5827 5824 5822 5820 5818 5816 5813 5811 5809 5807 5805 5803
5876 5874 5872 5870 5868 5866 5864 5861 5859 5857 5855 5853 5851 5849 5846 5844 5842 5840 5838 5836 5834 5832 5829 5827 5825 5823 5821 5818 5816 5813 5811 5809 5806 5804 5801 5799 5797 5795
5874 5872 5869 5867 5865 5863 5861 5858 5856 5854 5851 5849 5847 5845 5842 5840 5838 5836 5833 5831 5829 5827 5824 5822 5819 5817 5814 5812 5809 5807 5804 5801 5799 5796 5794 5791 5789 5787
5871 5869 5867 5864 5862 5859 5857 5855 5852 5850 5848 5845 5843 5841 5838 5836 5834 5831 5828 5826 5824 5821 5819 5816 5813 5811 5808 5805 5803 5800 5797 5794 5791 5789 5786 5783 5781 5779
5868 5866 5863 5861 5858 5856 5853 5851 5848 5846 5843 5841 5839 5837 5834 5832 5829 5826 5824 5821 5819 5816 5813 5811 5808 5805 5802 5799 5796 5793 5790 5787 5784 5781 5778 5776 5773 5771
5864 5862 5859 5857 5854 5851 5849 5846 5843 5841 5839 5836 5834 5832 5829 5827 5824 5821 5819 5816 5813 5810 5807 5804 5802 5799 5796 5793 5790 5786 5783 5780 5777 5774 5771 5768 5766 5763
5860 5858 5855 5852 5849 5847 5844 5841 5838 5836 5834 5831 5829 5827 5824 5821 5819 5816 5813 5810 5807 5804 5801 5799 5796 5793 5789 5786 5783 5780 5777 5773 5770 5767 5764 5761 5759 5756
5855 5853 5850 5847 5845 5842 5839 5836 5834 5831 5828 5826 5824 5821 5818 5816 5813 5810 5807 5804 5801 5799 5796 5792 5789 5786 5783 5779 5776 5773 5770 5767 5764 5761 5758 5755 5752 5750
5851 5848 5845 5842 5840 5837 5834 5831 5829 5826 5823 5820 5818 5815 5812 5809 5807 5804 5801 5798 5795 5792 5789 5786 5783 5779 5776 5773 5770 5767 5763 5760 5757 5754 5752 5749 5746 5743
5846 5843 5840 5837 5834 5832 5829 5826 5823 5821 5818 5815 5812 5809 5806 5803 5800 5797 5794 5791 5788 5785 5782 5779 5776 5773 5770 5767 5764 5760 5757 5754 5751 5748 5745 5742 5739 5736
5840 5837 5834 5832 5829 5826 5823 5820 5817 5814 5811 5808 5805 5802 5799 5796 5793 5791 5788 5785 5781 5778 5775 5772 5769 5766 5763 5759 5757 5754 5751 5748 5745 5741 5738 5735 5732 5729
5834 5831 5828 5826 5823 5820 5817 5814 5811 5808 5805 5802 5799 5796 5793 5790 5787 5784 5781 5777 5774 5771 5768 5765 5762 5759 5755 5752 5750 5747 5744 5741 5738 5734 5731 5728 5725 5721
5827 5824 5821 5819 5816 5813 5810 5807 5804 5801 5798 5795 5792 5789 5785 5782 5780 5777 5773 5770 5767 5764 5761 5758 5754 5751 5748 5745 5742 5739 5736 5733 5730 5727 5724 5720 5717 5714
5820 5817 5814 5811 5808 5805 5802 5799 5796 5793 5790 5787 5784 5781 5778 5775 5772 5769 5766 5763 5760 5757 5754 5751 5747 5744 5741 5738 5735 5732 5729 5726 5723 5719 5716 5713 5710 5707
5812 5810 5807 5804 5801 5798 5795 5791 5789 5785 5782 5779 5776 5773 5770 5767 5764 5761 5758 5755 5752 5749 5746 5743 5740 5736 5733 5730 5727 5724 5721 5718 5715 5712 5709 5705 5702 5700
5804 5802 5799 5796 5792 5789 5786 5783 5780 5777 5774 5771 5768 5764 5761 5758 5755 5753 5750 5747 5744 5741 5738 5735 5731 5728 5725 5722 5719 5716 5713 5710 5707 5704 5701 5698 5695 5692
5795 5793 5790 5787 5784 5781 5778 5775 5772 5769 5765 5762 5759 5755 5752 5749 5747 5744 5741 5738 5735 5732 5729 5726 5723 5720 5717 5714 5711 5708 5705 5701 5699 5696 5693 5690 5687 5684
5786 5784 5781 5778 5775 5772 5769 5766 5763 5760 5756 5753 5750 5747 5744 5741 5738 5736 5733 5730 5727 5724 5721 5718 5715 5712 5708 5705 5703 5700 5697 5693 5690 5688 5685 5682 5679 5676
5778 5775 5772 5769 5767 5764 5761 5757 5754 5751 5748 5744 5741 5738 5735 5732 5730 5727 5724 5722 5719 5716 5713 5710 5707 5703 5700 5698 5694 5692 5689 5686 5682 5679 5676 5674 5671 5668
5768 5766 5763 5760 5758 5755 5752 5748 5745 5742 5739 5735 5732 5730 5727 5724 5721 5719 5716 5713 5710 5707 5704 5701 5698 5695 5692 5689 5686 5683 5680 5677 5674 5671 5669 5665 5663 5660